Location: Newark
(48.7875°N, 2.3928°E)
Time: 13:25:53
(UTC+00:00)

OTV 5 (USA 277) - Visible Passes

Search period start: 15 October 2019 00:00
Search period end: 25 October 2019 00:00
Orbit: 310 x 324 km, 54.5° (Epoch: 08 October)

Date Brightness Start Highest point End Pass type
(mag) Time Alt. Az. Time Alt. Az. Time Alt. Az.
15 Oct ? 03:53:05 20° NE 03:53:05 20° NE 03:54:28 10° ENE visible
15 Oct ? 05:24:01 10° WNW 05:26:46 70° NNE 05:29:30 10° ESE visible
16 Oct ? 04:07:19 29° NE 04:07:19 29° NE 04:09:24 10° E visible
17 Oct ? 04:21:38 50° NNE 04:21:38 50° NNE 04:24:15 10° E visible
18 Oct ? 04:36:01 76° W 04:36:10 81° SSW 04:38:54 10° ESE visible
19 Oct ? 04:50:31 34° SW 04:50:39 34° SW 04:53:10 10° SSE visible
20 Oct ? 05:05:08 16° SW 05:05:08 16° SW 05:06:48 10° S visible
